Time,TemperatureF,DewpointF,PressureIn,WindDirection,WindDirectionDegrees,WindSpeedMPH,WindSpeedGustMPH,Humidity,HourlyPrecipIn,Conditions,Clouds,dailyrainin,SoftwareType,DateUTC
2013-11-06 00:00:00,45.0,38.6,30.30,East,81,0.0,0.0,78,0.00,,,0.00,Wunderground v.1.13,2013-11-06 05:00:00,
2013-11-06 00:10:00,45.0,38.6,30.30,East,81,0.0,0.0,78,0.00,,,0.00,Wunderground v.1.13,2013-11-06 05:10:00,
2013-11-06 00:20:00,44.7,38.6,30.30,East,81,0.0,0.0,79,0.00,,,0.00,Wunderground v.1.13,2013-11-06 05:20:00,
2013-11-06 00:30:00,44.4,38.3,30.30,East,81,0.0,0.0,79,0.00,,,0.00,Wunderground v.1.13,2013-11-06 05:30:00,
2013-11-06 00:40:00,44.1,38.0,30.29,East,81,0.0,0.0,79,0.00,,,0.00,Wunderground v.1.13,2013-11-06 05:40:00,
2013-11-06 00:50:00,44.1,38.3,30.29,East,81,0.0,0.0,80,0.00,,,0.00,Wunderground v.1.13,2013-11-06 05:50:00,
2013-11-06 01:00:00,43.8,37.7,30.28,East,81,0.0,0.0,79,0.00,,,0.00,Wunderground v.1.13,2013-11-06 06:00:00,
2013-11-06 01:10:00,43.7,38.3,30.28,East,81,0.0,0.0,81,0.00,,,0.00,Wunderground v.1.13,2013-11-06 06:10:00,
2013-11-06 01:20:00,43.5,37.7,30.28,East,81,0.0,0.0,80,0.00,,,0.00,Wunderground v.1.13,2013-11-06 06:20:00,
2013-11-06 01:30:00,43.5,38.4,30.28,East,81,0.0,0.0,82,0.00,,,0.00,Wunderground v.1.13,2013-11-06 06:30:00,
2013-11-06 01:40:00,43.7,37.9,30.27,East,81,0.0,0.0,80,0.00,,,0.00,Wunderground v.1.13,2013-11-06 06:40:00,
2013-11-06 01:50:00,43.8,38.3,30.27,East,81,0.0,0.0,81,0.00,,,0.00,Wunderground v.1.13,2013-11-06 06:50:00,
2013-11-06 02:00:00,44.1,38.3,30.27,East,81,0.0,0.0,80,0.00,,,0.00,Wunderground v.1.13,2013-11-06 07:00:00,
2013-11-06 02:10:00,44.2,37.8,30.26,East,81,0.0,0.0,78,0.00,,,0.00,Wunderground v.1.13,2013-11-06 07:10:00,
2013-11-06 02:20:00,44.8,39.0,30.26,East,81,0.0,0.0,80,0.00,,,0.00,Wunderground v.1.13,2013-11-06 07:20:00,
2013-11-06 02:30:00,45.3,39.5,30.26,East,81,0.0,0.0,80,0.00,,,0.00,Wunderground v.1.13,2013-11-06 07:30:00,
2013-11-06 02:40:00,45.6,40.4,30.26,East,81,0.0,0.0,82,0.00,,,0.00,Wunderground v.1.13,2013-11-06 07:40:00,
2013-11-06 02:50:00,45.6,40.1,30.26,East,81,0.0,0.0,81,0.00,,,0.00,Wunderground v.1.13,2013-11-06 07:50:00,
2013-11-06 03:00:00,45.6,40.4,30.26,East,81,0.0,0.0,82,0.00,,,0.00,Wunderground v.1.13,2013-11-06 08:00:00,
2013-11-06 03:10:00,45.6,41.0,30.25,East,81,0.0,0.0,84,0.00,,,0.00,Wunderground v.1.13,2013-11-06 08:10:00,
2013-11-06 03:20:00,45.9,41.6,30.25,East,81,0.0,0.0,85,0.00,,,0.00,Wunderground v.1.13,2013-11-06 08:20:00,
2013-11-06 03:30:00,46.0,41.4,30.24,East,81,0.0,0.0,84,0.00,,,0.00,Wunderground v.1.13,2013-11-06 08:30:00,
2013-11-06 03:40:00,46.3,41.7,30.23,East,81,0.0,0.0,84,0.00,,,0.00,Wunderground v.1.13,2013-11-06 08:40:00,
2013-11-06 03:50:00,46.4,41.8,30.23,East,81,0.0,0.0,84,0.00,,,0.00,Wunderground v.1.13,2013-11-06 08:50:00,
2013-11-06 04:00:00,46.6,42.0,30.23,East,81,0.0,0.0,84,0.00,,,0.00,Wunderground v.1.13,2013-11-06 09:00:00,
2013-11-06 04:10:00,46.6,41.7,30.23,East,81,0.0,0.0,83,0.00,,,0.00,Wunderground v.1.13,2013-11-06 09:10:00,
2013-11-06 04:20:00,46.6,41.4,30.23,East,81,0.0,0.0,82,0.00,,,0.00,Wunderground v.1.13,2013-11-06 09:20:00,
2013-11-06 04:30:00,46.3,41.4,30.23,East,81,0.0,0.0,83,0.00,,,0.00,Wunderground v.1.13,2013-11-06 09:30:00,
2013-11-06 04:40:00,45.9,40.7,30.24,East,81,0.0,0.0,82,0.00,,,0.00,Wunderground v.1.13,2013-11-06 09:40:00,
2013-11-06 04:50:00,45.7,40.8,30.24,East,81,0.0,0.0,83,0.00,,,0.00,Wunderground v.1.13,2013-11-06 09:50:00,
2013-11-06 05:00:00,45.4,40.8,30.24,East,81,0.0,0.0,84,0.00,,,0.00,Wunderground v.1.13,2013-11-06 10:00:00,
2013-11-06 05:10:00,45.1,40.2,30.25,East,81,0.0,0.0,83,0.00,,,0.00,Wunderground v.1.13,2013-11-06 10:10:00,
2013-11-06 05:20:00,44.8,39.6,30.25,East,81,0.0,0.0,82,0.00,,,0.00,Wunderground v.1.13,2013-11-06 10:20:00,
2013-11-06 05:30:00,44.4,39.2,30.24,East,81,0.0,0.0,82,0.00,,,0.00,Wunderground v.1.13,2013-11-06 10:30:00,
2013-11-06 05:40:00,44.0,39.5,30.24,East,81,0.0,0.0,84,0.00,,,0.00,Wunderground v.1.13,2013-11-06 10:40:00,
2013-11-06 05:50:00,43.8,39.6,30.24,East,81,0.0,0.0,85,0.00,,,0.00,Wunderground v.1.13,2013-11-06 10:50:00,
2013-11-06 06:00:00,43.4,39.5,30.24,East,81,0.0,0.0,86,0.00,,,0.00,Wunderground v.1.13,2013-11-06 11:00:00,
2013-11-06 06:10:00,43.1,39.5,30.24,East,81,0.0,0.0,87,0.00,,,0.00,Wunderground v.1.13,2013-11-06 11:10:00,
2013-11-06 06:20:00,42.8,38.9,30.24,East,81,0.0,0.0,86,0.00,,,0.00,Wunderground v.1.13,2013-11-06 11:20:00,
2013-11-06 06:30:00,42.5,38.3,30.24,East,81,0.0,0.0,85,0.00,,,0.00,Wunderground v.1.13,2013-11-06 11:30:00,
2013-11-06 06:40:00,42.5,38.6,30.24,East,81,0.0,0.0,86,0.00,,,0.00,Wunderground v.1.13,2013-11-06 11:40:00,
2013-11-06 06:50:00,42.4,38.5,30.24,East,81,0.0,0.0,86,0.00,,,0.00,Wunderground v.1.13,2013-11-06 11:50:00,
2013-11-06 07:00:00,42.2,38.3,30.25,East,81,0.0,0.0,86,0.00,,,0.00,Wunderground v.1.13,2013-11-06 12:00:00,
2013-11-06 07:10:00,42.1,38.5,30.24,East,81,0.0,0.0,87,0.00,,,0.00,Wunderground v.1.13,2013-11-06 12:10:00,
2013-11-06 07:20:00,42.0,38.4,30.24,East,81,0.0,0.0,87,0.00,,,0.00,Wunderground v.1.13,2013-11-06 12:20:00,
2013-11-06 07:30:00,42.0,38.4,30.24,East,81,0.0,0.0,87,0.00,,,0.00,Wunderground v.1.13,2013-11-06 12:30:00,
2013-11-06 07:40:00,42.0,38.4,30.25,East,81,0.0,0.0,87,0.00,,,0.00,Wunderground v.1.13,2013-11-06 12:40:00,
2013-11-06 07:50:00,42.1,38.8,30.25,East,81,0.0,0.0,88,0.00,,,0.00,Wunderground v.1.13,2013-11-06 12:50:00,
2013-11-06 08:00:00,42.4,39.1,30.25,East,81,0.0,0.0,88,0.00,,,0.00,Wunderground v.1.13,2013-11-06 13:00:00,
2013-11-06 08:10:00,43.0,39.1,30.24,East,81,0.0,0.0,86,0.00,,,0.00,Wunderground v.1.13,2013-11-06 13:10:00,
2013-11-06 08:20:00,43.8,39.9,30.24,East,81,0.0,0.0,86,0.00,,,0.00,Wunderground v.1.13,2013-11-06 13:20:00,
2013-11-06 08:30:00,45.3,41.4,30.24,East,81,0.0,0.0,86,0.00,,,0.00,Wunderground v.1.13,2013-11-06 13:30:00,
2013-11-06 08:40:00,46.9,41.7,30.24,East,81,0.0,0.0,82,0.00,,,0.00,Wunderground v.1.13,2013-11-06 13:40:00,
2013-11-06 08:50:00,48.5,42.6,30.24,East,81,0.0,0.0,80,0.00,,,0.00,Wunderground v.1.13,2013-11-06 13:50:00,
2013-11-06 09:00:00,49.4,42.1,30.24,East,81,0.0,0.0,76,0.00,,,0.00,Wunderground v.1.13,2013-11-06 14:00:00,
2013-11-06 09:10:00,50.3,42.7,30.24,East,81,0.0,1.0,75,0.00,,,0.00,Wunderground v.1.13,2013-11-06 14:10:00,
2013-11-06 09:20:00,51.2,43.5,30.24,East,81,0.0,0.0,75,0.00,,,0.00,Wunderground v.1.13,2013-11-06 14:20:00,
2013-11-06 09:30:00,52.4,44.0,30.23,East,81,0.0,0.0,73,0.00,,,0.00,Wunderground v.1.13,2013-11-06 14:30:00,
2013-11-06 09:40:00,53.8,44.2,30.23,East,81,0.0,0.0,70,0.00,,,0.00,Wunderground v.1.13,2013-11-06 14:40:00,
2013-11-06 09:50:00,54.7,44.3,30.23,East,81,0.0,0.0,68,0.00,,,0.00,Wunderground v.1.13,2013-11-06 14:50:00,
2013-11-06 10:00:00,55.5,44.7,30.22,East,82,0.0,0.0,67,0.00,,,0.00,Wunderground v.1.13,2013-11-06 15:00:00,
2013-11-06 10:10:00,56.6,45.4,30.22,East,82,0.0,0.0,66,0.00,,,0.00,Wunderground v.1.13,2013-11-06 15:10:00,
2013-11-06 10:20:00,58.5,46.8,30.22,ESE,123,0.0,0.0,65,0.00,,,0.00,Wunderground v.1.13,2013-11-06 15:20:00,
2013-11-06 10:30:00,59.5,48.1,30.22,ESE,123,0.0,0.0,66,0.00,,,0.00,Wunderground v.1.13,2013-11-06 15:30:00,
2013-11-06 10:40:00,61.1,48.4,30.22,WNW,283,0.0,1.0,63,0.00,,,0.00,Wunderground v.1.13,2013-11-06 15:40:00,
2013-11-06 10:50:00,62.3,49.1,30.22,West,281,0.0,1.0,62,0.00,,,0.00,Wunderground v.1.13,2013-11-06 15:50:00,
2013-11-06 11:00:00,64.6,49.9,30.22,NNW,327,0.0,0.0,59,0.00,,,0.00,Wunderground v.1.13,2013-11-06 16:00:00,
2013-11-06 11:10:00,65.2,49.6,30.21,West,277,0.0,0.0,57,0.00,,,0.00,Wunderground v.1.13,2013-11-06 16:10:00,
2013-11-06 11:20:00,66.3,49.6,30.21,WSW,252,0.0,0.0,55,0.00,,,0.00,Wunderground v.1.13,2013-11-06 16:20:00,
2013-11-06 11:30:00,67.2,49.0,30.20,WNW,282,1.0,1.0,52,0.00,,,0.00,Wunderground v.1.13,2013-11-06 16:30:00,
2013-11-06 11:40:00,67.8,49.5,30.19,WSW,251,0.0,0.0,52,0.00,,,0.00,Wunderground v.1.13,2013-11-06 16:40:00,
2013-11-06 11:50:00,69.2,49.8,30.19,WNW,294,0.0,0.0,50,0.00,,,0.00,Wunderground v.1.13,2013-11-06 16:50:00,
2013-11-06 12:00:00,70.5,51.0,30.18,SE,145,1.0,1.0,50,0.00,,,0.00,Wunderground v.1.13,2013-11-06 17:00:00,
2013-11-06 12:10:00,71.7,49.8,30.17,SE,140,0.0,0.0,46,0.00,,,0.00,Wunderground v.1.13,2013-11-06 17:10:00,
2013-11-06 12:20:00,71.2,50.5,30.17,SSE,153,0.0,0.0,48,0.00,,,0.00,Wunderground v.1.13,2013-11-06 17:20:00,
2013-11-06 12:30:00,72.2,50.3,30.16,East,87,0.0,0.0,46,0.00,,,0.00,Wunderground v.1.13,2013-11-06 17:30:00,
2013-11-06 12:40:00,72.2,49.7,30.15,WNW,292,1.0,2.0,45,0.00,,,0.00,Wunderground v.1.13,2013-11-06 17:40:00,
2013-11-06 12:50:00,72.6,50.0,30.15,NNE,15,1.0,1.0,45,0.00,,,0.00,Wunderground v.1.13,2013-11-06 17:50:00,
2013-11-06 13:00:00,73.1,50.5,30.14,WSW,240,1.0,1.0,45,0.00,,,0.00,Wunderground v.1.13,2013-11-06 18:00:00,
2013-11-06 13:10:00,73.1,50.5,30.13,West,267,1.0,1.0,45,0.00,,,0.00,Wunderground v.1.13,2013-11-06 18:10:00,
2013-11-06 13:20:00,73.4,50.2,30.13,WSW,257,0.0,0.0,44,0.00,,,0.00,Wunderground v.1.13,2013-11-06 18:20:00,
2013-11-06 13:30:00,73.8,50.5,30.13,NW,311,0.0,3.0,44,0.00,,,0.00,Wunderground v.1.13,2013-11-06 18:30:00,
2013-11-06 13:40:00,73.8,50.5,30.11,NW,311,1.0,1.0,44,0.00,,,0.00,Wunderground v.1.13,2013-11-06 18:40:00,
2013-11-06 13:50:00,74.5,49.9,30.11,SSW,198,1.0,1.0,42,0.00,,,0.00,Wunderground v.1.13,2013-11-06 18:50:00,
2013-11-06 14:10:00,75.7,50.3,30.10,SSE,147,1.0,1.0,41,0.00,,,0.00,Wunderground v.1.13,2013-11-06 19:10:00,
2013-11-06 14:20:00,75.5,50.1,30.10,SSW,202,1.0,1.0,41,0.00,,,0.00,Wunderground v.1.13,2013-11-06 19:20:00,
2013-11-06 14:30:00,75.7,50.3,30.09,SE,126,1.0,2.0,41,0.00,,,0.00,Wunderground v.1.13,2013-11-06 19:30:00,
2013-11-06 14:40:00,75.0,49.7,30.09,SSE,163,1.0,1.0,41,0.00,,,0.00,Wunderground v.1.13,2013-11-06 19:40:00,
2013-11-06 14:50:00,74.8,50.2,30.09,SE,134,0.0,1.0,42,0.00,,,0.00,Wunderground v.1.13,2013-11-06 19:50:00,
2013-11-06 15:00:00,74.3,50.4,30.09,SSE,150,1.0,1.0,43,0.00,,,0.00,Wunderground v.1.13,2013-11-06 20:00:00,
2013-11-06 15:10:00,75.2,50.5,30.08,NW,314,0.0,1.0,42,0.00,,,0.00,Wunderground v.1.13,2013-11-06 20:10:00,
2013-11-06 15:20:00,75.2,49.9,30.08,ENE,72,1.0,1.0,41,0.00,,,0.00,Wunderground v.1.13,2013-11-06 20:20:00,
2013-11-06 15:30:00,75.2,49.9,30.08,SE,125,1.0,1.0,41,0.00,,,0.00,Wunderground v.1.13,2013-11-06 20:30:00,
2013-11-06 15:40:00,75.0,50.3,30.07,SE,128,0.0,0.0,42,0.00,,,0.00,Wunderground v.1.13,2013-11-06 20:40:00,
2013-11-06 15:50:00,75.2,50.5,30.07,SE,145,0.0,0.0,42,0.00,,,0.00,Wunderground v.1.13,2013-11-06 20:50:00,
2013-11-06 16:00:00,74.5,49.9,30.07,SE,146,1.0,1.0,42,0.00,,,0.00,Wunderground v.1.13,2013-11-06 21:00:00,
2013-11-06 16:10:00,74.1,49.5,30.07,ESE,122,0.0,2.0,42,0.00,,,0.00,Wunderground v.1.13,2013-11-06 21:10:00,
2013-11-06 16:20:00,73.8,49.3,30.07,SSE,159,0.0,1.0,42,0.00,,,0.00,Wunderground v.1.13,2013-11-06 21:20:00,
2013-11-06 16:30:00,73.4,48.9,30.07,NW,315,0.0,2.0,42,0.00,,,0.00,Wunderground v.1.13,2013-11-06 21:30:00,
2013-11-06 16:40:00,72.9,49.1,30.07,NW,315,0.0,0.0,43,0.00,,,0.00,Wunderground v.1.13,2013-11-06 21:40:00,
2013-11-06 16:50:00,72.4,48.6,30.07,ESE,121,0.0,1.0,43,0.00,,,0.00,Wunderground v.1.13,2013-11-06 21:50:00,
2013-11-06 17:00:00,72.0,48.9,30.06,SE,124,0.0,0.0,44,0.00,,,0.00,Wunderground v.1.13,2013-11-06 22:00:00,
2013-11-06 17:10:00,71.5,49.0,30.06,ESE,107,0.0,0.0,45,0.00,,,0.00,Wunderground v.1.13,2013-11-06 22:10:00,
2013-11-06 17:20:00,71.0,49.2,30.06,ESE,108,0.0,0.0,46,0.00,,,0.00,Wunderground v.1.13,2013-11-06 22:20:00,
2013-11-06 17:30:00,70.3,49.1,30.06,ESE,108,0.0,0.0,47,0.00,,,0.00,Wunderground v.1.13,2013-11-06 22:30:00,
2013-11-06 17:40:00,69.7,49.1,30.07,ESE,108,0.0,0.0,48,0.00,,,0.00,Wunderground v.1.13,2013-11-06 22:40:00,
2013-11-06 17:50:00,69.0,49.0,30.07,ESE,108,0.0,0.0,49,0.00,,,0.00,Wunderground v.1.13,2013-11-06 22:50:00,
2013-11-06 18:00:00,68.2,48.8,30.07,ESE,108,0.0,0.0,50,0.00,,,0.00,Wunderground v.1.13,2013-11-06 23:00:00,
2013-11-06 18:10:00,67.5,49.3,30.07,ESE,108,0.0,0.0,52,0.00,,,0.00,Wunderground v.1.13,2013-11-06 23:10:00,
2013-11-06 18:20:00,66.7,49.5,30.07,ESE,108,0.0,0.0,54,0.00,,,0.00,Wunderground v.1.13,2013-11-06 23:20:00,
2013-11-06 18:30:00,65.9,49.3,30.07,ESE,108,0.0,0.0,55,0.00,,,0.00,Wunderground v.1.13,2013-11-06 23:30:00,
2013-11-06 18:40:00,65.1,49.5,30.07,ESE,108,0.0,0.0,57,0.00,,,0.00,Wunderground v.1.13,2013-11-06 23:40:00,
2013-11-06 18:50:00,64.4,49.8,30.07,ESE,108,0.0,0.0,59,0.00,,,0.00,Wunderground v.1.13,2013-11-06 23:50:00,
2013-11-06 19:00:00,64.1,49.5,30.08,ESE,108,0.0,0.0,59,0.00,,,0.00,Wunderground v.1.13,2013-11-07 00:00:00,
2013-11-06 19:10:00,63.8,49.2,30.08,ESE,108,0.0,0.0,59,0.00,,,0.00,Wunderground v.1.13,2013-11-07 00:10:00,
2013-11-06 19:20:00,63.8,49.6,30.08,ESE,108,0.0,0.0,60,0.00,,,0.00,Wunderground v.1.13,2013-11-07 00:20:00,
2013-11-06 19:30:00,63.8,50.1,30.08,ESE,108,0.0,0.0,61,0.00,,,0.00,Wunderground v.1.13,2013-11-07 00:30:00,
2013-11-06 19:40:00,63.4,49.7,30.07,ESE,108,0.0,0.0,61,0.00,,,0.00,Wunderground v.1.13,2013-11-07 00:40:00,
2013-11-06 19:50:00,64.2,50.0,30.07,NE,55,0.0,1.0,60,0.00,,,0.00,Wunderground v.1.13,2013-11-07 00:50:00,
2013-11-06 20:00:00,64.4,50.2,30.07,NE,55,0.0,0.0,60,0.00,,,0.00,Wunderground v.1.13,2013-11-07 01:00:00,
2013-11-06 20:10:00,64.9,50.2,30.07,ESE,104,0.0,1.0,59,0.00,,,0.00,Wunderground v.1.13,2013-11-07 01:10:00,
2013-11-06 20:20:00,64.7,50.5,30.07,SE,136,0.0,1.0,60,0.00,,,0.00,Wunderground v.1.13,2013-11-07 01:20:00,
2013-11-06 20:30:00,64.6,50.4,30.06,ESE,117,0.0,1.0,60,0.00,,,0.00,Wunderground v.1.13,2013-11-07 01:30:00,
2013-11-06 20:40:00,64.2,50.5,30.05,ESE,122,0.0,1.0,61,0.00,,,0.00,Wunderground v.1.13,2013-11-07 01:40:00,
2013-11-06 20:50:00,63.9,50.2,30.05,ESE,122,0.0,1.0,61,0.00,,,0.00,Wunderground v.1.13,2013-11-07 01:50:00,
2013-11-06 21:00:00,63.3,50.1,30.04,ESE,122,0.0,1.0,62,0.00,,,0.00,Wunderground v.1.13,2013-11-07 02:00:00,
2013-11-06 21:10:00,62.5,50.2,30.05,ESE,122,0.0,1.0,64,0.00,,,0.00,Wunderground v.1.13,2013-11-07 02:10:00,
2013-11-06 21:20:00,61.7,49.8,30.05,ESE,122,0.0,1.0,65,0.00,,,0.00,Wunderground v.1.13,2013-11-07 02:20:00,
2013-11-06 21:30:00,61.1,49.7,30.04,ESE,122,0.0,1.0,66,0.00,,,0.00,Wunderground v.1.13,2013-11-07 02:30:00,
2013-11-06 21:40:00,60.6,49.6,30.04,ESE,122,0.0,1.0,67,0.00,,,0.00,Wunderground v.1.13,2013-11-07 02:40:00,
2013-11-06 21:50:00,60.3,49.7,30.04,ESE,122,0.0,1.0,68,0.00,,,0.00,Wunderground v.1.13,2013-11-07 02:50:00,
2013-11-06 22:00:00,60.0,49.4,30.04,ESE,122,0.0,1.0,68,0.00,,,0.00,Wunderground v.1.13,2013-11-07 03:00:00,
2013-11-06 22:10:00,59.7,49.5,30.05,ESE,122,0.0,1.0,69,0.00,,,0.00,Wunderground v.1.13,2013-11-07 03:10:00,
2013-11-06 22:20:00,59.2,49.4,30.05,ESE,122,0.0,1.0,70,0.00,,,0.00,Wunderground v.1.13,2013-11-07 03:20:00,
2013-11-06 22:30:00,58.8,49.4,30.04,ESE,122,0.0,1.0,71,0.00,,,0.00,Wunderground v.1.13,2013-11-07 03:30:00,
2013-11-06 22:40:00,58.2,49.6,30.04,ESE,122,0.0,1.0,73,0.00,,,0.00,Wunderground v.1.13,2013-11-07 03:40:00,
2013-11-06 22:50:00,57.5,49.3,30.04,ESE,122,0.0,1.0,74,0.00,,,0.00,Wunderground v.1.13,2013-11-07 03:50:00,
2013-11-06 23:10:00,56.9,49.4,30.03,ESE,122,0.0,1.0,76,0.00,,,0.00,Wunderground v.1.13,2013-11-07 04:10:00,
2013-11-06 23:20:00,56.6,49.1,30.03,ESE,122,0.0,1.0,76,0.00,,,0.00,Wunderground v.1.13,2013-11-07 04:20:00,
2013-11-06 23:30:00,56.6,49.5,30.03,ESE,122,0.0,1.0,77,0.00,,,0.00,Wunderground v.1.13,2013-11-07 04:30:00,
2013-11-06 23:40:00,56.8,49.7,30.02,ESE,122,0.0,1.0,77,0.00,,,0.00,Wunderground v.1.13,2013-11-07 04:40:00,
2013-11-06 23:50:00,57.1,50.3,30.02,ESE,122,0.0,1.0,78,0.00,,,0.00,Wunderground v.1.13,2013-11-07 04:50:00,